Zurück zum Katalog

SL-16 DEB

AktivLEO
NORAD 22398·DEBRIS·🇷🇺 Russia

Gestartet Dec 25, 1992 von Baikonur Cosmodrome

Loading…

Nächste Überflüge (nächste 24 Stunden)

TLE

AktuellSource: Space-Track

Epoche: Sep 13, 2026, 23:36 UTC

1 22398U 92093CP  26256.98376782  .00000752  00000-0  43844-3 0  9998
2 22398  70.9504 111.3650 0107586 200.9856 158.6833 14.08879175721582

Verfolge SL-16 DEB in Echtzeit mit AllMySat

Download on the App Store